Location: *
(50.8160°S, 176.0219°W)
Time: 00:33:21
(UTC+00:00)

CZ-4C R/B - Pass Details

Date: 19 May 2026
Orbit: 474 x 1503 km, 63.4° (Epoch: 9 June)

Event Time Altitude Azimuth Distance (km) Brightness Sun altitude
Rises 18:19:14 0° 318° (NW) 4,579 5.8 -9.4°
Reaches altitude 10° 18:22:23 10° 318° (NW) 3,538 5.2 -9.0°
Maximum altitude 18:31:13 89° 227° (SW) 1,262 3.1 -7.7°
Drops below altitude 10° 18:38:18 10° 136° (SE) 2,881 5.3 -6.6°
Sets 18:40:39 0° 135° (SE) 3,696 5.8 -6.3°
